sat.trackr.live / text

‹ back to catalog

STARLINK-34271

NORAD 64384 · 2025-127Q

PAYLOAD ACTIVE UNKNOWN

§ Identity

Operator
Country
US
Launch date
2025-06-13
Launch site
AFETR
Launch vehicle
Mass (kg)
RCS (m²)

Purposes: comms

External: N2YO · Heavens-Above · Gunter

§ Orbital elements

Epoch: 2026-09-20T09:43:52.849056Z

Period
94.27 min
Inclination
43.0025°
Eccentricity
0.0001342
Mean motion
15.27589128 rev/d
Perigee alt
482.1 km
Apogee alt
483.9 km
Semi-major
6,861.2 km
B*
3.1474e-4
RAAN
160.3560°
Arg perigee
269.0744°
Mean anomaly
90.9954°
Rev number
7,224

§ Raw data

STARLINK-342711 64384U 25127Q   26263.40547279  .00008411  00000+0  31474-3 0  99942 64384  43.0025 160.3560 0001342 269.0744  90.9954 15.27589128 72243

JSON: /api/v1/satellites/64384 · /tle

For live sub-satellite position, see the globe view (requires WebGL).

§ Visibility from observer

Set your observer location to see the next 7 days of passes ≥ 10°. The values pass through the URL so the page stays shareable.

No JS? Fill the form by hand. The geolocation button needs JavaScript.